MAYA-4 (49274 NORAD) Tracking and Keplerian Element Data

This shows tracking and keplerian element data for the satellite.

Feedback or suggestion? Click here.




ElementValue
Catalog49274
NameMAYA-4
Epoch Orbit948
Epoch Day339.89871037
Epoch Year2021
RAAN212.7259
Inclination51.64
Eccentricity0.00028
Argument of Perigee309.0259
Mean Anonmoly51.0482
Mean Motion15.52058491
Decay Rate0.00015444
L11 49274U 98067ST 21339.89871037 .00015444 00000+0 25855-3 0 9992
L22 49274 51.6400 212.7259 0002800 309.0259 51.0482 15.52058491 9481

Live tracking and technical data element details for MAYA-4 (NORAD 49274). MAYA-4 can be tracked NOW for your location showing map with azimuth and elevation plus other details from your city location.

Track the satellite on the map from your city or location and see movement details for azimuth, elevation, latitude, longitude, range, height, and movement on the map or in text.







IsCatalogInMostPopularTable: catalog: 49274, numindb: 14
Update: records affected: 1



GetName: 49274 MAYA-4

Hit Count: updated at: Mon, 06 Dec 2021 15:27:49 GMT